Gig Harbor, WA

1:14 AM PST on February 21, 2017 (GMT -0800)
Tacoma Narrows

Weather History for KTIW - March, 2013

Change the Weather History Date:

Sunday, March 3, 2013

  Actual Average Record
Temperature  
Mean Temperature 42 °F -  
Max Temperature 48 °F 47 °F 60 °F (2005)
Min Temperature 35 °F 37 °F 32 °F (2001)
Degree Days  
Heating Degree Days 24    
Moisture  
Dew Point 31 °F    
Average Humidity 69    
Maximum Humidity 87    
Minimum Humidity 35    
Precipitation  
Precipitation 0.00 in - - ()
Sea Level Pressure  
Sea Level Pressure 30.27 in    
Wind  
Wind Speed 5 mph (South)    
Max Wind Speed 8 mph    
Max Gust Speed -    
Visibility 10 miles    
Events Rain    
Averages and records for this station are not official NWS values.
T = Trace of Precipitation, MM = Missing Value Source: NWS Daily Summary

Daily Weather History Graph

Daily Weather History Graph

Search for Another Location

Airport or City:

Trip Planner

Search our weather history database for the weather conditions in past years. The results will help you decide how hot, cold, wet, or windy it might be!

Date:

Astronomy

Mar. 03, 2013 Rise Set
Actual Time 6:46 AM PST 5:59 PM PST
Civil Twilight 6:15 AM PST 6:29 PM PST
Nautical Twilight 5:40 AM PST 7:05 PM PST
Astronomical Twilight 5:04 AM PST 7:40 PM PST
Moon 12:09 AM PST (3/3) 9:38 AM PST (3/3)
Length of Visible Light 12h 14m
Length of Day
11h 13m
Waning Gibbous, 62% of the Moon is Illuminated
Mar 3
Waning Gibbous
Mar 4
Last Quarter
Mar 11
New
Mar 19
First Quarter
Mar 27
Full

Hourly Weather History & Observations

Time (PST) Temp. Windchill Dew Point Humidity Pressure Visibility Wind Dir Wind Speed Gust Speed Precip Events Conditions
12:53 AM 39.0 °F 33.4 °F 33.1 °F 79% 30.22 in 10.0 mi SW 8.1 mph - N/A   Clear
1:53 AM 37.9 °F 35.5 °F 32.0 °F 79% 30.23 in 10.0 mi SSW 3.5 mph - N/A   Clear
2:53 AM 37.9 °F 32.7 °F 32.0 °F 79% 30.24 in 10.0 mi SSW 6.9 mph - N/A   Clear
3:53 AM 39.2 °F 35.9 °F 32.0 °F 75% 30.23 in 10.0 mi SW 4.6 mph - N/A   Clear
4:53 AM 37.9 °F 32.7 °F 32.0 °F 79% 30.25 in 10.0 mi SSW 6.9 mph - N/A   Clear
5:53 AM 35.1 °F 29.3 °F 30.9 °F 85% 30.27 in 10.0 mi SSW 6.9 mph - N/A   Partly Cloudy
6:53 AM 36.0 °F - 30.9 °F 82% 30.27 in 10.0 mi Calm Calm - N/A   Clear
7:21 AM 37.4 °F 33.8 °F 33.8 °F 87% 30.27 in 10.0 mi East 4.6 mph - N/A   Mostly Cloudy
7:53 AM 37.0 °F 34.5 °F 33.1 °F 86% 30.29 in 10.0 mi SE 3.5 mph - N/A   Overcast
8:53 AM 39.0 °F 35.7 °F 34.0 °F 82% 30.29 in 10.0 mi SE 4.6 mph - N/A   Mostly Cloudy
9:53 AM 39.9 °F 35.8 °F 34.0 °F 79% 30.29 in 10.0 mi Variable 5.8 mph - N/A   Scattered Clouds
10:53 AM 43.0 °F 40.3 °F 34.0 °F 71% 30.29 in 10.0 mi SSW 4.6 mph - N/A   Scattered Clouds
11:53 AM 44.1 °F 41.5 °F 33.1 °F 65% 30.29 in 10.0 mi South 4.6 mph - N/A   Scattered Clouds
12:53 PM 46.0 °F 43.9 °F 30.9 °F 56% 30.28 in 10.0 mi Variable 4.6 mph - N/A   Scattered Clouds
1:53 PM 46.9 °F - 28.9 °F 50% 30.27 in 10.0 mi South 5.8 mph - N/A   Scattered Clouds
2:53 PM 48.9 °F - 21.9 °F 35% 30.27 in 10.0 mi Calm Calm - N/A   Scattered Clouds
3:53 PM 48.0 °F - 28.0 °F 46% 30.27 in 10.0 mi NE 4.6 mph - N/A   Scattered Clouds
4:53 PM 46.9 °F - 28.0 °F 48% 30.27 in 10.0 mi NNE 4.6 mph - N/A   Mostly Cloudy
5:53 PM 46.0 °F 42.5 °F 28.9 °F 51% 30.28 in 10.0 mi NNE 6.9 mph - N/A   Mostly Cloudy
6:53 PM 45.0 °F 41.8 °F 30.0 °F 56% 30.29 in 10.0 mi NNE 5.8 mph - 0.00 in Rain Light Rain
7:53 PM 44.1 °F - 30.9 °F 60% 30.30 in 10.0 mi Calm Calm - 0.00 in   Overcast
8:53 PM 42.1 °F - 32.0 °F 67% 30.30 in 10.0 mi Calm Calm - N/A   Partly Cloudy
9:53 PM 41.0 °F - 32.0 °F 70% 30.30 in 10.0 mi Calm Calm - N/A   Scattered Clouds
10:53 PM 39.0 °F - 33.1 °F 79% 30.30 in 10.0 mi Calm Calm - N/A   Mostly Cloudy
11:53 PM 37.0 °F - 32.0 °F 82% 30.30 in 10.0 mi Calm Calm - N/A   Clear